Morgantown, WV

4:20 AM EDT on May 26, 2018 (GMT -0400)
Morgantown Municipal-Hart

Weather History for KMGW - January, 2007

Change the Weather History Date:

Thursday, January 18, 2007

  Actual Average Record
Temperature  
Mean Temperature 30 °F 31 °F  
Max Temperature 39 °F 39 °F 69 °F (1929)
Min Temperature 21 °F 24 °F -13 °F (1994)
Degree Days  
Heating Degree Days 35 34  
Month to date heating degree days 609  
Since 1 July heating degree days 2593  
Cooling Degree Days 0 0  
Month to date cooling degree days 0  
Year to date cooling degree days 0  
Moisture  
Dew Point 19 °F    
Average Humidity 56    
Maximum Humidity 78    
Minimum Humidity 34    
Precipitation  
Precipitation 0.00 in 0.09 in 1.72 in (1937)
Month to date precipitation 1.62  
Year to date precipitation 1.62  
Sea Level Pressure  
Sea Level Pressure 30.29 in    
Wind  
Wind Speed 3 mph (SSW)    
Max Wind Speed 10 mph    
Max Gust Speed -    
Visibility 10 miles    
Events      
T = Trace of Precipitation, MM = Missing Value Source: NWS Daily Summary

Daily Weather History Graph

Daily Weather History Graph

Search for Another Location

Airport or City:

Astronomy

Jan. 18, 2007 Rise Set
Actual Time 7:37 AM EST 5:22 PM EST
Civil Twilight 7:08 AM EST 5:52 PM EST
Nautical Twilight 6:35 AM EST 6:25 PM EST
Astronomical Twilight 6:02 AM EST 6:57 PM EST
Moon 7:35 AM EST (1/18) 4:46 PM EST (1/18)
Length of Visible Light 10h 44m
Length of Day
9h 45m
Waning Crescent, 0% of the Moon is Illuminated
Jan 18
Waning Crescent
Jan 18
New
Jan 25
First Quarter
Feb 2
Full
Feb 10
Last Quarter

Hourly Weather History & Observations

Time (EST) Temp. Windchill Dew Point Humidity Pressure Visibility Wind Dir Wind Speed Gust Speed Precip Events Conditions
12:53 AM 24.1 °F - 14.0 °F 65% 30.53 in 10.0 mi Calm Calm - N/A   Clear
1:53 AM 25.0 °F - 12.0 °F 58% 30.51 in 10.0 mi Calm Calm - N/A   Clear
2:53 AM 26.1 °F 19.4 °F 10.0 °F 51% 30.47 in 10.0 mi SE 5.8 mph - N/A   Clear
3:53 AM 24.1 °F - 15.1 °F 69% 30.45 in 10.0 mi Calm Calm - N/A   Clear
4:53 AM 27.0 °F - 10.9 °F 51% 30.45 in 10.0 mi Calm Calm - N/A   Clear
5:53 AM 25.0 °F 20.7 °F 12.0 °F 58% 30.44 in 10.0 mi SSE 3.5 mph - N/A   Clear
6:53 AM 21.9 °F 17.2 °F 16.0 °F 78% 30.45 in 10.0 mi South 3.5 mph - N/A   Mostly Cloudy
7:53 AM 25.0 °F - 17.1 °F 72% 30.42 in 10.0 mi Calm Calm - N/A   Overcast
8:53 AM 27.0 °F 23.0 °F 19.0 °F 72% 30.42 in 10.0 mi SSW 3.5 mph - N/A   Overcast
9:53 AM 32.0 °F 28.7 °F 15.1 °F 50% 30.40 in 10.0 mi SSW 3.5 mph - N/A   Clear
10:53 AM 35.1 °F 31.0 °F 12.9 °F 40% 30.40 in 10.0 mi Variable 4.6 mph - N/A   Overcast
11:53 AM 37.0 °F 33.3 °F 12.0 °F 36% 30.37 in 10.0 mi SW 4.6 mph - N/A   Clear
12:53 PM 39.0 °F 34.8 °F 14.0 °F 36% 30.34 in 10.0 mi Variable 5.8 mph - N/A   Overcast
1:53 PM 39.0 °F 32.3 °F 12.9 °F 34% 30.30 in 10.0 mi SW 10.4 mph - N/A   Overcast
2:53 PM 39.0 °F 33.4 °F 16.0 °F 39% 30.27 in 10.0 mi SW 8.1 mph - N/A   Overcast
3:53 PM 39.0 °F 35.7 °F 18.0 °F 43% 30.25 in 10.0 mi Variable 4.6 mph - N/A   Overcast
4:53 PM 39.0 °F 36.8 °F 19.9 °F 46% 30.22 in 10.0 mi SSW 3.5 mph - N/A   Overcast
5:53 PM 37.9 °F 32.7 °F 21.0 °F 51% 30.20 in 10.0 mi Variable 6.9 mph - N/A   Overcast
6:53 PM 37.9 °F 35.5 °F 24.1 °F 57% 30.18 in 10.0 mi South 3.5 mph - N/A   Overcast
7:53 PM 37.9 °F 32.7 °F 24.1 °F 57% 30.15 in 10.0 mi Variable 6.9 mph - N/A   Overcast
8:53 PM 39.0 °F 34.8 °F 27.0 °F 62% 30.13 in 10.0 mi SW 5.8 mph - N/A   Overcast
9:53 PM 37.9 °F 34.4 °F 28.0 °F 68% 30.09 in 10.0 mi SW 4.6 mph - N/A   Overcast
10:36 PM 39.2 °F 33.0 °F 28.4 °F 65% 30.04 in 10.0 mi SW 9.2 mph - N/A   Overcast
10:45 PM 39.2 °F 33.0 °F 28.4 °F 65% 30.04 in 10.0 mi SSW 9.2 mph - N/A   Overcast
10:53 PM 39.0 °F 32.8 °F 28.9 °F 67% 30.06 in 10.0 mi WSW 9.2 mph - N/A   Overcast
11:53 PM 37.9 °F 31.5 °F 30.0 °F 73% 30.04 in 10.0 mi WSW 9.2 mph - N/A   Overcast